Content
SEND FEEDBACK

Daily
Averages
Monthly
Summary
India

TRIVANDRUM, INDIA


Home > Asia > India
Elevation: 205 feet     Latitude: 08 29N     Longitude: 076 57E

WEATHER
 
SELECT A DAY
Number of Records: 112,252;   Date Range: 7/1/96 - 7/28/14
 
SHARE

PRINT THIS DATA

[ ← Previous Day ]
WEATHER ALMANAC - JANUARY 19, 2013
[ Next Day → ]
[ °C ]   °F
Weather ElementAverageHighLow
Temperature80.5 °F87.8 °F (1:40 pm)73.4 °F (3:10 am)
Dewpoint69.7 °F73.4 °F (11:10 am)62.6 °F (7:10 am)
Humidity70.2 %83 % (7:40 am)52 % (4:10 pm)
Barometer29.89 in29.95 in (7:40 am)29.80 in (2:40 pm)
Wind Speed2.8 mph6.9 mph (1:40 pm)
Weather ElementAverage
Visibility2.5 mi
Wind DirectionESE (105 °)

Weather ElementTotal
Precipitation---
Cooling Degree Days15.6 (Base 65)
Growing Degree Days30.6 (Base 50)
Averaged from 26 records on January 19, 2013
WEATHER CONDITIONS BREAKOUT
WIND DIRECTION BREAKOUT
WEATHER BY HOUR - JANUARY 19, 2013
[ °C ]   °F
Local TimeTemperatureDewpointHumidityBarometerVisibilityWind DirectionWind SpeedGust SpeedPrecipitationEventsConditions
12:40 AM77.0 °F69.8 °F78 %29.89 in1.9 miCalmHaze
1:40 AM75.2 °F68.0 °F78 %29.89 in1.9 miCalmHaze
2:10 AM75.2 °F68.0 °F78 %29.89 in1.9 miCalmHaze
3:10 AM73.4 °F66.2 °F78 %29.86 in1.9 miCalmHaze
4:10 AM73.4 °F66.2 °F78 %29.86 in1.9 miCalmHaze
5:10 AM73.4 °F64.4 °F73 %29.89 in1.6 miEast (90°)3.5 mphHaze
6:10 AM73.4 °F64.4 °F73 %29.89 in1.6 miCalmHaze
7:10 AM80.6 °F62.6 °F54 %29.92 in1.6 miEast (80°)3.5 mphHaze
7:40 AM73.4 °F68.0 °F83 %29.95 in1.6 miCalmHaze
8:10 AM75.2 °F68.0 °F78 %29.95 in1.9 miCalmHaze
8:40 AM78.8 °F69.8 °F74 %29.95 in1.9 miCalmHaze
9:10 AM80.6 °F71.6 °F74 %29.95 in1.9 miSouth (170°)2.3 mphHaze
10:10 AM82.4 °F71.6 °F70 %29.95 in2.5 miWSW (250°)5.8 mphHaze
11:10 AM84.2 °F73.4 °F70 %29.92 in2.8 miWSW (240°)4.6 mphHaze
12:10 PM84.2 °F73.4 °F70 %29.89 in3.1 miSW (230°)5.8 mphHaze
1:10 PM86.0 °F71.6 °F62 %29.86 in3.1 miSSW (210°)5.8 mphHaze
1:40 PM87.8 °F71.6 °F58 %29.83 in3.1 miSW (220°)6.9 mphHaze
2:10 PM87.8 °F73.4 °F62 %29.83 in3.7 miSW (220°)6.9 mphPartly Cloudy
2:40 PM87.8 °F71.6 °F58 %29.80 in3.7 miSW (230°)5.8 mph
3:10 PM87.8 °F73.4 °F62 %29.80 in3.7 miWSW (250°)6.9 mph
4:10 PM87.8 °F68.0 °F52 %29.80 in3.7 miWSW (250°)5.8 mph
6:10 PM84.2 °F68.0 °F58 %29.83 inNorth
8:10 PM82.4 °F73.4 °F74 %29.89 in3.1 miSW (220°)2.3 mphHaze
9:10 PM80.6 °F71.6 °F74 %29.92 in2.5 miCalmHaze
10:10 PM80.6 °F71.6 °F74 %29.92 in2.5 miCalmHaze
11:10 PM78.8 °F73.4 °F83 %29.92 in2.5 miENE (70°)3.5 mphHaze
Hourly data recorded from VOTV, located miles away from Trivandrum, India







STORIES FROM OUR PARTNERS